Temp
62 63 62 61 60 59 59 59 57 56 56 56 54 52 52 52 52 54 55 55 54 53 52 50 49 48 48 47 47 45 45 43 43 43 42 42 42 43 43 44 44 46 46
59 61 61 60 59 59 59 58 58 56 57 57 53 54 52 52 52 53 53 54 54 53 52 50 48 48 47 46 46 45 43 42 42 41 38 37 40 42 43 42 44 43 43
58 60 60 60 60 58 58 59 58 57 57 56 54 51 52 51 51 50 51 52 53 53 52 50 48 47 46 45 44 44 44 41 41 42 40 35 34 35 39 41 41 41 41
61 61 61 60 61 61 59 59 58 57 57 56 55 53 52 50 51 51 51 52 52 52 51 49 48 46 45 44 44 45 42 41 40 40 43 40 39 35 33 38 39 40 42
61 61 62 62 62 60 58 59 58 57 57 56 56 54 52 52 51 51 51 50 50 50 50 48 46 45 44 43 43 43 42 40 40 38 38 37 36 35 34 33 35 41 42
60 62 63 61 61 56 56 56 57 57 57 57 56 54 53 52 51 49 50 48 47 47 47 47 45 46 45 44 45 44 43 41 39 37 37 37 36 35 34 31 33 39 38
59 59 58 59 57 56 56 57 57 57 57 57 56 55 54 54 52 51 51 47 45 44 45 46 47 47 46 45 43 44 43 41 39 38 38 37 38 38 37 35 38 32 35
61 60 60 59 58 57 57 57 57 59 57 58 57 55 56 54 52 51 50 48 47 45 47 44 45 46 47 46 45 43 42 41 38 36 36 38 37 37 37 36 35 33 35
56 59 60 59 58 57 57 57 58 59 59 58 57 55 54 52 51 49 48 47 46 48 44 46 46 45 44 45 44 42 41 39 37 37 38 36 36 36 37 37 35 32 28
52 55 57 57 58 58 58 58 59 59 59 57 57 56 53 52 50 49 47 48 47 45 45 43 44 44 45 44 43 41 40 37 37 37 36 35 35 35 35 34 34 33 31
52 53 55 57 57 57 58 58 59 58 57 56 55 52 50 50 50 50 48 47 46 46 45 45 44 45 44 43 41 40 39 37 37 37 36 35 35 34 33 33 33 32 30
53 53 54 55 55 57 57 58 58 58 56 54 51 50 50 50 50 47 48 47 47 47 46 46 45 45 44 42 41 39 40 38 37 37 36 35 38 33 33 31 32 30 30
53 53 53 54 56 56 57 56 56 55 52 51 50 50 49 49 48 48 47 48 47 46 45 45 45 44 43 41 41 41 39 37 36 36 35 34 33 32 32 32 30 29 31
54 52 52 53 54 54 54 53 51 51 51 50 51 50 50 49 47 49 48 47 45 44 44 44 45 44 44 43 41 40 38 37 36 35 34 34 33 32 32 31 29 29 27
53 53 53 52 52 52 50 50 49 48 50 49 49 49 49 50 49 47 45 44 43 42 46 45 44 44 43 42 39 38 36 35 34 34 34 33 34 38 35 32 30 28 26
50 52 53 52 51 50 49 48 47 47 50 48 48 49 48 47 46 45 43 43 44 45 45 43 43 41 43 41 40 38 35 34 33 32 32 32 36 36 37 38 37 31 26
46 47 47 48 48 47 46 45 47 48 47 47 48 47 47 45 44 45 45 44 43 42 41 40 40 39 38 39 40 39 34 33 32 32 32 32 35 36 34 34 36 34 33
42 42 43 43 43 44 44 45 45 45 44 45 45 45 45 45 45 45 43 42 41 40 39 38 37 36 37 38 39 38 34 32 32 31 31 30 31 31 32 30 28 29 29
40 39 41 41 42 42 43 43 42 43 44 45 45 45 45 44 43 42 41 41 39 38 36 36 35 34 34 37 37 36 32 31 31 32 31 31 30 32 35 29 27 27 28
39 39 40 40 40 40 42 41 42 44 43 44 43 44 43 42 41 40 39 38 36 35 34 33 33 34 32 36 37 36 30 29 31 30 30 34 32 32 33 28 25 22 26
39 40 40 39 39 42 43 41 42 42 43 43 43 43 42 41 40 38 36 34 32 31 31 31 31 32 32 33 36 37 31 31 30 30 29 30 33 34 34 33 26 24 28
38 39 39 38 39 40 41 39 40 42 43 43 40 40 38 37 37 33 32 32 31 30 30 27 30 31 31 34 35 36 36 33 30 30 30 30 33 34 34 33 31 30 27
38 39 39 38 39 40 41 39 39 39 38 36 35 34 34 34 33 32 31 30 30 28 29 29 29 31 33 30 34 35 35 34 31 31 31 32 33 34 32 32 32 30 27
36 38 38 37 37 38 38 37 37 37 34 33 32 32 31 32 31 31 31 29 27 27 30 29 30 30 31 31 29 30 29 32 32 30 32 30 30 29 30 29 30 29 27
37 38 36 36 35 35 34 34 33 32 32 31 31 30 30 29 30 30 29 29 29 29 29 30 30 30 30 32 34 32 31 31 30 29 28 29 28 27 27 27 27 27 26
37 36 35 33 32 31 30 30 31 30 30 30 29 27 27 26 28 28 28 33 33 34 34 35 32 32 34 35 36 36 35 34 33 28 28 27 27 25 26 25 25 25 24
MSLP
1014.05 1014.80 1015.27 1015.85 1016.42 1016.88 1017.32 1017.75 1018.22 1018.75 1019.32 1020.03 1020.66 1021.14 1021.29 1021.61 1021.81 1021.78 1022.11 1022.18 1022.65 1023.10 1023.63 1024.24 1024.71 1025.22 1025.34 1025.88 1026.20 1026.67 1027.16 1027.72 1027.71 1027.72 1027.58 1027.46 1027.29 1027.18 1027.14 1026.98 1026.88 1026.84 1026.98
1014.20 1014.39 1014.88 1015.43 1015.81 1016.32 1016.72 1017.38 1017.78 1018.27 1018.79 1019.22 1019.89 1020.39 1020.91 1021.54 1021.88 1021.98 1022.19 1022.37 1022.60 1023.07 1023.67 1024.03 1024.65 1024.99 1025.45 1025.87 1026.08 1026.46 1027.30 1027.74 1027.73 1027.83 1027.92 1027.78 1027.65 1027.33 1027.28 1027.24 1027.05 1027.09 1027.20
1013.25 1013.85 1014.18 1014.40 1015.02 1015.52 1015.95 1016.67 1017.42 1017.82 1018.32 1018.92 1019.49 1020.45 1021.06 1021.60 1021.87 1022.02 1022.06 1022.30 1022.72 1023.08 1023.35 1023.90 1024.52 1025.02 1025.42 1025.87 1026.36 1026.60 1026.70 1027.26 1027.52 1027.37 1027.80 1028.09 1028.19 1027.96 1027.50 1027.30 1027.24 1027.30 1027.39
1012.62 1013.13 1013.63 1014.22 1014.17 1014.72 1015.70 1016.40 1017.08 1017.78 1018.22 1018.76 1019.13 1019.55 1019.96 1020.78 1020.80 1021.02 1021.58 1022.13 1022.60 1022.96 1023.49 1024.11 1024.61 1025.00 1025.43 1026.16 1026.53 1026.81 1027.10 1027.06 1027.44 1027.43 1027.62 1027.81 1028.05 1028.30 1028.31 1027.68 1027.53 1027.47 1027.31
1011.78 1012.29 1012.59 1012.81 1013.88 1014.85 1015.29 1015.82 1016.61 1017.32 1017.86 1018.41 1018.77 1019.26 1019.85 1020.27 1020.61 1021.19 1021.49 1022.14 1022.75 1023.16 1023.60 1024.10 1024.62 1025.21 1025.83 1026.18 1026.65 1026.68 1027.17 1027.23 1027.56 1027.78 1027.91 1028.14 1028.24 1028.25 1028.42 1028.13 1027.81 1027.54 1027.34
1011.16 1011.66 1012.33 1013.17 1013.74 1014.57 1015.32 1015.83 1016.20 1016.76 1017.38 1017.94 1018.35 1018.81 1019.44 1020.17 1020.85 1021.32 1021.80 1022.32 1022.90 1023.36 1023.66 1024.10 1024.63 1025.03 1025.37 1025.78 1026.30 1026.10 1026.63 1026.85 1027.20 1027.56 1027.86 1027.93 1027.93 1028.00 1028.05 1028.09 1027.74 1027.37 1027.15
1010.61 1011.18 1011.91 1012.58 1013.35 1014.04 1014.63 1015.14 1015.71 1016.15 1016.66 1017.38 1018.05 1018.56 1019.02 1019.77 1020.37 1020.87 1021.30 1022.12 1022.81 1023.28 1023.55 1023.79 1024.29 1024.62 1024.89 1024.99 1025.86 1026.20 1026.29 1026.51 1026.99 1027.55 1027.59 1027.56 1027.62 1027.69 1027.64 1027.56 1027.31 1027.33 1027.34
1009.77 1010.50 1011.08 1011.86 1012.56 1013.25 1013.83 1014.41 1014.84 1015.45 1016.13 1016.98 1017.53 1018.20 1018.60 1019.19 1019.73 1020.15 1020.65 1021.31 1021.84 1022.55 1023.51 1024.31 1024.90 1025.00 1024.87 1025.51 1025.34 1025.91 1026.20 1026.26 1026.58 1027.01 1027.27 1027.30 1027.25 1027.21 1027.08 1027.09 1027.32 1027.45 1027.43
1009.47 1009.75 1010.48 1011.13 1011.78 1012.44 1012.87 1013.45 1014.18 1014.79 1015.43 1015.90 1016.68 1017.45 1018.05 1018.66 1019.00 1019.38 1019.90 1020.68 1021.41 1022.32 1023.32 1023.73 1023.94 1025.20 1024.87 1025.33 1025.29 1025.75 1025.92 1026.31 1026.72 1026.90 1027.02 1027.12 1027.01 1026.92 1026.82 1026.84 1027.05 1027.49 1027.65
1009.94 1010.08 1010.40 1010.84 1011.34 1011.80 1012.49 1013.26 1013.76 1014.03 1014.61 1015.51 1016.20 1016.82 1017.45 1017.98 1018.52 1019.17 1019.89 1020.52 1021.17 1022.06 1022.95 1023.58 1024.29 1024.48 1024.81 1025.08 1025.42 1025.83 1025.92 1026.22 1026.44 1026.53 1026.73 1026.86 1026.81 1026.82 1026.79 1026.78 1026.86 1027.02 1027.18
1009.88 1010.06 1010.43 1010.77 1011.22 1011.72 1012.32 1012.78 1013.45 1013.92 1014.48 1014.98 1015.64 1016.36 1016.89 1017.46 1018.12 1018.90 1019.77 1020.71 1021.37 1022.00 1022.89 1023.26 1023.82 1024.20 1024.81 1024.89 1025.29 1025.67 1025.93 1026.29 1026.28 1026.32 1026.40 1026.35 1026.36 1026.28 1026.38 1026.48 1026.66 1026.81 1027.04
1009.56 1010.00 1010.43 1010.80 1011.16 1011.50 1011.92 1012.23 1012.84 1013.60 1014.11 1014.71 1015.44 1016.05 1016.61 1017.26 1018.11 1018.74 1019.42 1020.28 1021.33 1021.90 1021.98 1022.50 1023.27 1023.68 1024.21 1024.89 1025.22 1025.31 1025.47 1025.80 1026.06 1025.95 1026.00 1025.95 1025.98 1026.07 1026.15 1026.30 1026.43 1026.60 1026.71
1009.72 1009.96 1010.45 1010.64 1010.76 1011.12 1011.54 1012.11 1012.78 1013.46 1014.03 1014.77 1015.36 1016.02 1016.81 1017.60 1018.48 1019.21 1019.81 1020.58 1021.03 1021.63 1022.52 1022.75 1022.88 1024.22 1024.22 1024.32 1024.46 1024.70 1025.08 1025.33 1025.44 1025.46 1025.57 1025.53 1025.72 1025.86 1025.79 1025.85 1026.04 1026.16 1026.29
1009.69 1010.07 1010.35 1010.58 1011.03 1011.52 1011.96 1012.38 1013.00 1013.54 1014.20 1014.88 1015.47 1016.21 1017.06 1017.81 1018.79 1019.51 1020.11 1020.84 1021.26 1022.00 1022.31 1022.99 1023.83 1023.54 1023.78 1023.86 1024.24 1024.45 1024.61 1024.70 1024.76 1024.86 1024.92 1025.02 1025.16 1025.15 1025.14 1025.26 1025.38 1025.64 1025.95
1009.69 1009.92 1010.33 1010.96 1011.40 1011.87 1012.39 1012.94 1013.47 1014.07 1014.68 1015.29 1015.92 1016.69 1017.53 1018.07 1018.81 1019.78 1020.44 1020.97 1021.31 1022.41 1022.64 1022.56 1023.10 1023.44 1023.53 1023.58 1023.64 1023.75 1023.84 1024.12 1024.22 1024.27 1024.33 1024.44 1024.47 1024.35 1024.50 1024.59 1024.76 1025.17 1025.41
1011.00 1010.67 1010.92 1011.30 1011.84 1012.22 1012.93 1013.55 1014.07 1014.55 1015.02 1015.77 1016.45 1016.97 1017.79 1018.74 1019.43 1020.05 1020.89 1021.49 1022.32 1022.43 1022.81 1022.98 1023.08 1023.13 1023.16 1022.88 1022.89 1023.21 1023.40 1023.54 1023.71 1023.82 1023.84 1023.99 1023.88 1023.92 1023.85 1023.75 1023.78 1024.29 1024.68
1012.51 1012.37 1012.37 1012.51 1012.70 1013.16 1013.67 1014.37 1014.89 1015.30 1015.82 1016.45 1017.15 1017.80 1018.67 1019.49 1020.26 1020.80 1021.45 1021.56 1021.87 1022.36 1022.83 1022.82 1022.76 1022.63 1022.53 1022.58 1022.49 1022.42 1022.68 1022.90 1023.05 1023.19 1023.36 1023.46 1023.34 1023.25 1023.34 1023.41 1023.43 1023.67 1023.90
1013.85 1013.89 1013.89 1013.99 1014.19 1014.46 1014.83 1015.30 1015.86 1016.36 1016.88 1017.56 1018.19 1018.91 1019.54 1020.34 1020.87 1021.40 1021.81 1022.32 1022.31 1022.25 1022.26 1022.32 1022.39 1022.35 1022.11 1022.00 1021.94 1021.90 1022.12 1022.31 1022.37 1022.52 1022.65 1022.80 1022.79 1022.88 1022.90 1023.06 1023.36 1023.50 1023.65
1015.33 1015.31 1015.16 1015.15 1015.27 1015.59 1015.97 1016.23 1016.95 1017.46 1017.98 1018.66 1019.22 1019.81 1020.39 1020.94 1021.36 1021.82 1022.06 1022.12 1022.24 1022.26 1022.12 1022.09 1022.04 1022.06 1021.87 1021.68 1021.58 1021.51 1021.64 1021.78 1021.81 1021.84 1021.96 1022.08 1022.12 1022.15 1022.24 1022.62 1022.98 1023.08 1023.13
1015.88 1015.93 1016.11 1016.29 1016.50 1017.06 1017.15 1017.30 1018.00 1018.30 1018.96 1019.65 1020.24 1020.70 1020.97 1021.19 1021.49 1021.77 1022.07 1022.22 1022.29 1022.20 1022.05 1022.00 1021.87 1021.70 1021.54 1021.31 1021.07 1021.03 1021.15 1021.37 1021.25 1021.18 1021.18 1021.27 1021.26 1021.36 1021.59 1021.96 1022.37 1022.62 1022.45
1016.51 1016.73 1016.93 1017.30 1017.81 1018.01 1018.02 1018.50 1019.05 1019.60 1020.02 1020.30 1020.52 1020.82 1021.17 1021.47 1021.74 1021.96 1022.15 1022.23 1022.26 1022.22 1022.10 1021.92 1021.50 1021.20 1020.98 1020.66 1020.52 1020.38 1020.45 1020.41 1020.37 1020.41 1020.40 1020.34 1020.34 1020.46 1020.73 1021.13 1021.52 1021.60 1021.74
1017.36 1017.55 1017.78 1018.32 1018.70 1018.92 1019.03 1019.58 1020.00 1020.42 1020.52 1020.64 1021.10 1021.49 1021.73 1021.93 1022.05 1022.17 1022.17 1022.18 1022.20 1022.16 1021.88 1021.58 1021.14 1020.73 1020.38 1020.14 1019.75 1019.51 1019.41 1019.27 1019.48 1019.41 1019.33 1019.33 1019.39 1019.51 1019.70 1020.07 1020.42 1020.76 1021.11
1018.00 1018.30 1018.53 1019.10 1019.60 1019.89 1020.19 1020.60 1021.11 1021.17 1021.38 1021.62 1021.94 1022.09 1022.16 1022.25 1022.32 1022.41 1022.35 1022.29 1022.14 1022.00 1021.73 1021.44 1020.90 1020.18 1019.63 1019.36 1019.00 1018.66 1018.46 1018.42 1018.57 1018.37 1018.19 1018.23 1018.36 1018.62 1018.79 1019.10 1019.32 1019.85 1020.31
1018.56 1018.96 1019.34 1019.99 1020.65 1021.02 1021.35 1021.64 1021.78 1021.86 1022.05 1022.33 1022.54 1022.63 1022.74 1022.71 1022.61 1022.52 1022.41 1022.33 1022.08 1021.80 1021.46 1021.05 1020.53 1019.93 1019.24 1018.75 1018.38 1018.07 1017.67 1017.41 1017.37 1017.17 1017.20 1017.26 1017.41 1017.64 1017.82 1018.08 1018.43 1018.76 1019.19
1019.08 1019.47 1020.05 1020.79 1021.70 1021.97 1022.25 1022.45 1022.55 1022.52 1022.76 1023.01 1023.17 1023.21 1023.18 1023.10 1022.85 1022.63 1022.48 1022.21 1021.89 1021.70 1021.24 1020.83 1020.31 1019.71 1018.73 1018.02 1017.67 1017.29 1017.09 1016.79 1016.52 1016.48 1016.32 1016.55 1016.88 1017.07 1017.26 1017.42 1017.65 1017.96 1018.31
1019.66 1020.21 1020.98 1021.62 1022.49 1022.82 1023.14 1023.29 1023.32 1023.32 1023.51 1023.73 1023.87 1023.91 1023.76 1023.53 1023.22 1022.82 1022.37 1022.22 1021.70 1021.33 1021.07 1020.65 1020.21 1019.14 1018.66 1017.69 1016.78 1016.24 1015.88 1015.48 1015.40 1015.44 1015.13 1015.22 1015.66 1016.19 1016.37 1016.54 1016.69 1017.00 1017.32
Wind_Speed
13 10 8 8 8 7 7 8 9 8 8 4 4 3 3 3 2 3 5 6 6 6 7 5 5 5 5 5 4 3 3 2 2 1 2 2 2 2 1 2 1 2 3
10 11 9 11 12 11 11 10 11 12 9 7 4 3 4 2 2 2 4 6 7 7 6 7 5 6 5 5 4 4 3 1 1 2 1 3 4 3 3 3 1 2 3
14 13 14 15 12 13 14 13 11 12 10 8 6 4 4 3 2 2 3 4 6 7 7 6 6 5 4 4 3 4 5 4 2 1 3 2 2 2 3 2 1 1 2
13 13 14 13 16 14 9 9 9 10 9 10 9 8 6 5 4 4 4 4 6 6 5 6 6 6 4 5 3 2 1 3 1 2 2 1 2 2 4 3 2 3 1
14 16 18 19 12 10 11 11 10 10 9 10 10 7 4 2 2 2 6 5 4 6 6 6 6 6 4 5 5 4 3 1 2 1 0 1 1 1 3 4 3 1 3
15 14 13 9 10 7 8 9 12 11 10 11 9 10 8 5 3 4 5 5 4 4 6 7 7 7 7 6 4 5 5 4 3 2 3 3 3 3 3 3 4 7 3
13 12 13 13 11 14 13 12 13 13 12 12 11 10 9 9 8 7 7 8 5 3 6 8 8 5 6 7 6 4 5 4 3 4 3 2 2 2 3 3 4 1 2
14 14 15 14 14 15 15 15 14 15 12 11 11 8 9 6 7 8 8 7 6 7 7 6 6 5 5 2 5 3 3 4 4 5 4 3 3 3 3 2 2 3 3
10 14 12 14 14 15 17 17 14 13 11 12 10 9 8 9 8 8 8 7 9 8 8 9 9 4 4 5 6 4 4 4 3 5 4 3 2 3 3 3 3 3 4
5 6 8 10 10 12 12 12 13 15 12 11 10 9 10 9 7 7 9 10 11 11 11 9 6 7 6 4 4 3 3 5 4 4 5 4 3 4 3 3 3 3 4
8 8 8 7 8 7 10 10 11 12 11 11 11 9 8 8 9 10 10 11 12 11 9 7 6 6 5 6 5 4 5 6 5 5 6 6 5 4 4 3 2 3 3
7 7 6 7 8 10 10 13 13 11 10 8 8 6 7 9 9 11 12 13 10 7 8 8 7 7 5 4 6 7 6 7 6 7 6 7 4 5 4 3 5 4 4
6 6 7 9 11 11 9 8 7 6 7 7 8 8 8 9 9 10 11 9 10 10 5 5 8 3 6 6 9 8 6 7 7 6 6 6 6 5 4 4 4 4 4
7 5 5 6 4 3 4 5 6 7 8 8 8 9 9 9 10 10 9 6 7 6 6 6 4 5 7 7 5 7 7 7 7 6 7 7 7 7 6 5 6 5 4
6 6 5 5 5 6 5 5 6 6 7 8 9 8 9 10 10 7 7 7 7 5 6 6 4 6 5 4 7 7 7 7 7 6 6 6 8 11 9 4 5 4 4
8 6 4 4 5 6 7 7 7 7 9 9 9 9 10 8 8 9 9 7 3 6 3 3 3 5 5 10 10 8 6 7 6 6 6 6 9 7 9 10 13 8 5
7 8 8 7 6 6 6 7 7 7 9 10 10 10 10 10 9 8 6 6 5 3 3 5 6 7 6 7 10 10 6 6 6 6 5 5 5 8 5 7 9 9 12
9 8 7 8 8 9 11 11 10 11 12 12 13 12 12 11 7 6 5 2 2 4 5 6 6 5 5 9 10 11 6 6 7 7 7 6 6 6 5 5 5 6 6
5 6 7 9 11 11 11 14 13 13 14 13 13 11 8 6 5 3 1 3 4 4 4 5 6 5 7 10 11 9 5 6 7 6 7 7 7 10 12 6 7 7 7
7 9 10 11 13 10 12 15 13 15 13 10 9 7 5 4 3 3 3 3 3 4 4 6 6 8 8 10 12 9 4 6 6 6 7 14 10 13 13 7 8 7 8
9 10 11 12 10 10 13 14 12 11 7 6 4 5 4 2 1 2 1 3 5 5 5 6 6 7 7 9 14 15 6 7 7 6 5 6 15 16 16 15 8 10 6
10 10 12 10 8 7 9 10 10 5 5 6 6 5 4 3 3 3 3 4 5 5 6 5 8 6 7 11 13 15 15 13 8 8 7 7 15 16 17 14 16 18 9
9 9 12 12 9 8 8 9 5 6 6 6 6 5 6 5 5 5 6 5 5 4 6 6 7 9 6 6 13 15 15 16 9 7 11 15 16 16 13 18 18 13 6
9 8 11 12 11 10 10 8 6 5 6 7 6 6 6 6 5 4 3 4 4 5 6 7 8 8 9 8 6 7 7 12 11 10 10 10 10 10 10 8 11 8 7
8 9 11 11 10 10 11 10 9 8 8 7 6 6 5 5 6 4 4 5 5 5 7 8 8 9 11 11 13 11 8 7 9 7 4 4 5 6 6 6 7 7 6
9 11 11 12 10 10 10 9 9 8 7 7 6 5 5 4 5 6 7 8 12 15 16 18 12 12 18 25 26 24 23 20 20 6 6 6 7 8 7 7 7 7 7
Wind_Direction
215 203 178 166 167 171 168 167 155 155 146 143 143 140 162 157 144 158 176 150 139 140 139 141 138 145 126 144 139 115 104 41 344 40 328 327 14 24 266 36 11 22 7
199 208 188 176 184 180 180 177 180 168 173 163 144 148 136 148 148 178 176 162 147 147 151 151 152 146 127 138 128 125 121 142 286 152 158 16 340 346 247 309 278 325 10
197 197 197 192 184 186 186 187 186 177 171 159 123 87 89 86 144 175 162 172 159 163 155 152 142 145 136 131 130 139 150 161 242 91 136 30 255 326 327 356 327 35 358
201 198 198 205 204 199 178 181 177 178 172 167 168 169 174 168 202 171 150 157 164 164 136 137 147 135 121 118 130 107 97 110 136 22 42 27 151 210 323 337 312 315 300
203 204 202 205 195 187 180 181 172 180 178 181 185 179 180 137 117 161 146 135 124 140 149 142 126 113 107 123 119 112 98 80 128 138 118 340 354 237 196 261 279 304 271
205 206 207 188 190 158 163 176 182 188 182 190 186 186 178 154 172 165 164 139 135 141 137 131 132 141 137 135 144 137 153 146 130 153 186 192 191 208 204 235 247 303 258
196 190 182 184 175 177 176 187 192 194 190 195 199 197 177 182 197 181 169 152 152 152 156 152 152 131 117 134 168 160 144 140 135 190 211 210 220 215 217 208 288 282 351
197 195 192 187 186 184 186 192 198 202 191 192 208 195 181 188 187 176 166 170 160 136 127 109 99 131 137 151 139 137 151 162 182 205 212 217 220 211 208 197 146 298 248
197 195 189 188 187 188 195 195 198 200 195 198 199 195 192 189 189 170 150 143 130 130 123 130 137 153 175 183 152 169 172 175 197 215 203 222 243 228 222 204 176 189 286
223 215 199 192 190 196 194 194 199 199 195 195 203 205 197 184 156 144 143 144 134 132 141 141 167 182 206 155 163 192 181 186 210 205 214 231 236 233 225 208 203 198 200
205 203 196 195 191 184 190 198 197 195 195 193 192 188 180 160 142 147 142 144 142 146 157 160 175 166 169 181 175 198 209 217 219 221 216 223 214 212 206 204 203 220 186
212 205 187 173 180 190 189 196 198 195 198 185 169 159 137 142 147 145 152 146 150 170 161 162 157 171 179 175 202 212 213 212 223 227 222 237 211 217 216 207 220 216 210
232 198 178 195 199 200 197 189 182 192 145 145 145 135 137 141 146 145 137 142 148 157 142 153 143 193 214 206 219 219 214 216 224 231 223 234 206 227 223 224 224 215 229
212 216 211 203 190 173 151 158 137 147 143 138 139 137 141 135 132 141 138 140 138 121 128 133 213 200 217 224 222 219 222 225 227 228 220 216 216 226 239 225 218 217 223
245 226 216 167 149 140 125 110 106 109 126 129 129 128 124 130 131 116 97 104 121 167 173 150 195 235 236 226 230 226 225 228 237 231 222 220 229 243 237 206 230 211 217
25 344 343 80 132 136 129 113 101 105 115 121 120 118 110 105 108 114 115 125 138 132 119 233 263 278 246 236 240 225 224 229 225 229 232 232 252 262 268 262 239 207 195
33 34 37 43 72 87 84 84 98 97 95 99 97 94 96 98 96 100 111 123 111 87 246 267 254 246 256 256 254 251 227 223 221 224 229 231 227 228 230 265 242 216 221
30 25 32 51 55 76 84 88 84 83 85 83 87 93 97 99 94 86 66 13 239 233 234 245 247 247 260 257 260 259 232 225 229 223 220 219 230 228 224 225 234 231 230
48 53 54 62 65 69 82 85 80 84 86 91 94 92 91 84 67 54 266 253 259 268 257 252 264 270 271 265 261 258 230 230 236 230 217 219 220 232 238 213 233 236 238
60 65 64 68 70 68 83 87 90 95 91 85 78 74 92 92 12 309 292 264 257 270 286 283 265 260 263 266 270 261 211 236 239 231 229 235 218 228 231 215 213 226 241
80 80 76 80 86 95 98 91 91 86 91 96 87 55 51 46 328 323 300 295 295 292 284 274 273 272 256 266 263 259 223 228 236 228 231 226 229 230 230 228 202 217 226
81 80 84 74 62 61 81 82 82 84 79 71 68 66 48 6 341 313 295 295 292 294 294 295 293 273 265 255 267 261 241 227 224 230 230 229 233 232 223 221 221 227 226
95 87 89 83 68 62 71 80 56 60 61 62 48 28 7 358 352 336 322 321 316 296 290 283 284 286 275 256 261 264 256 246 232 232 229 226 234 236 229 226 222 222 217
95 97 91 80 74 66 61 56 43 47 56 49 34 22 17 354 348 331 303 291 291 299 296 293 290 292 293 286 270 265 262 255 241 240 240 230 226 218 221 215 224 217 210
94 90 91 88 75 68 59 46 40 44 53 48 35 24 13 359 341 331 305 300 274 254 297 299 296 300 295 286 279 270 275 258 244 251 214 221 219 222 218 213 210 213 212
97 90 87 86 77 67 55 42 36 41 42 39 21 9 356 346 341 334 329 314 307 313 313 312 307 305 294 295 293 289 281 262 254 217 214 211 215 224 224 218 213 212 215